Time,TemperatureF,DewpointF,PressureIn,WindDirection,WindDirectionDegrees,WindSpeedMPH,WindSpeedGustMPH,Humidity,HourlyPrecipIn,Conditions,Clouds,dailyrainin,SolarRadiationWatts/m^2,SoftwareType,DateUTC
2013-04-13 00:00:00,42.6,35.2,29.95,North,350,0.0,0.0,75,0.00,,,0.17,0,Wunderground v.1.15,2013-04-13 04:00:00,
2013-04-13 00:01:00,42.4,35.0,29.95,North,350,0.0,0.0,75,0.00,,,0.17,0,Wunderground v.1.15,2013-04-13 04:01:00,
2013-04-13 00:06:00,42.0,35.3,29.95,North,350,2.0,2.0,77,0.00,,,0.00,0,Wunderground v.1.15,2013-04-13 04:06:00,
2013-04-13 00:11:00,41.3,35.0,29.96,NNW,346,1.0,2.0,78,0.00,,,0.00,0,Wunderground v.1.15,2013-04-13 04:11:00,
2013-04-13 00:16:00,40.9,35.2,29.96,NNW,344,1.0,2.0,80,0.00,,,0.00,0,Wunderground v.1.15,2013-04-13 04:16:00,
2013-04-13 00:21:00,40.6,34.9,29.96,NNW,329,1.0,2.0,80,0.00,,,0.00,0,Wunderground v.1.15,2013-04-13 04:21:00,
2013-04-13 00:26:00,40.5,35.1,29.96,NNW,329,0.0,2.0,81,0.00,,,0.00,0,Wunderground v.1.15,2013-04-13 04:26:00,
2013-04-13 00:31:00,40.7,35.0,29.97,NNW,329,0.0,1.0,80,0.00,,,0.00,0,Wunderground v.1.15,2013-04-13 04:31:00,
2013-04-13 00:36:00,40.7,35.3,29.97,NNW,329,1.0,1.0,81,0.00,,,0.00,0,Wunderground v.1.15,2013-04-13 04:36:00,
2013-04-13 00:41:00,40.6,35.2,29.97,NNW,329,0.0,1.0,81,0.00,,,0.00,0,Wunderground v.1.15,2013-04-13 04:41:00,
2013-04-13 00:46:00,40.5,35.1,29.97,NNW,329,0.0,1.0,81,0.00,,,0.00,0,Wunderground v.1.15,2013-04-13 04:46:00,
2013-04-13 00:51:00,40.4,35.3,29.97,NNW,329,0.0,0.0,82,0.00,,,0.00,0,Wunderground v.1.15,2013-04-13 04:51:00,
2013-04-13 00:56:00,40.2,35.1,29.97,NNW,329,0.0,1.0,82,0.00,,,0.00,0,Wunderground v.1.15,2013-04-13 04:56:00,
2013-04-13 01:02:00,40.1,35.4,29.97,NNW,329,1.0,1.0,83,0.00,,,0.00,0,Wunderground v.1.15,2013-04-13 05:02:00,
2013-04-13 01:07:00,40.2,35.4,29.98,NNW,329,1.0,1.0,83,0.00,,,0.00,0,Wunderground v.1.15,2013-04-13 05:07:00,
2013-04-13 01:12:00,40.6,34.6,29.98,NNW,329,1.0,2.0,79,0.00,,,0.00,0,Wunderground v.1.15,2013-04-13 05:12:00,
2013-04-13 01:17:00,41.0,34.7,29.98,NNW,329,1.0,2.0,78,0.00,,,0.00,0,Wunderground v.1.15,2013-04-13 05:17:00,
2013-04-13 01:22:00,41.3,34.6,29.98,NNW,327,0.0,2.0,77,0.00,,,0.00,0,Wunderground v.1.15,2013-04-13 05:22:00,
2013-04-13 01:27:00,40.6,34.6,29.98,NNW,327,0.0,2.0,79,0.00,,,0.00,0,Wunderground v.1.15,2013-04-13 05:27:00,
2013-04-13 01:32:00,39.9,34.5,29.98,NNW,327,0.0,0.0,81,0.00,,,0.00,0,Wunderground v.1.15,2013-04-13 05:32:00,
2013-04-13 01:37:00,39.7,34.7,29.98,NNW,327,0.0,0.0,82,0.00,,,0.00,0,Wunderground v.1.15,2013-04-13 05:37:00,
2013-04-13 01:42:00,39.5,34.8,29.98,NNW,327,0.0,0.0,83,0.00,,,0.00,0,Wunderground v.1.15,2013-04-13 05:42:00,
2013-04-13 01:47:00,39.1,34.4,29.98,NNW,327,0.0,0.0,83,0.00,,,0.00,0,Wunderground v.1.15,2013-04-13 05:47:00,
2013-04-13 01:52:00,38.7,34.3,29.98,NNW,327,0.0,1.0,84,0.00,,,0.00,0,Wunderground v.1.15,2013-04-13 05:52:00,
2013-04-13 01:57:00,38.2,34.1,29.99,NNW,327,1.0,1.0,85,0.00,,,0.00,0,Wunderground v.1.15,2013-04-13 05:57:00,
2013-04-13 02:02:00,38.0,33.9,29.98,NNW,327,1.0,1.0,85,0.00,,,0.00,0,Wunderground v.1.15,2013-04-13 06:02:00,
2013-04-13 02:07:00,37.8,34.0,29.99,NNW,327,1.0,2.0,86,0.00,,,0.00,0,Wunderground v.1.15,2013-04-13 06:07:00,
2013-04-13 02:12:00,37.7,33.9,29.99,NNW,327,0.0,2.0,86,0.00,,,0.00,0,Wunderground v.1.15,2013-04-13 06:12:00,
2013-04-13 02:17:00,38.3,34.5,29.99,NNW,327,2.0,2.0,86,0.00,,,0.00,0,Wunderground v.1.15,2013-04-13 06:17:00,
2013-04-13 02:22:00,39.3,34.6,29.99,NW,321,2.0,2.0,83,0.00,,,0.00,0,Wunderground v.1.15,2013-04-13 06:22:00,
2013-04-13 02:27:00,39.9,34.5,29.99,WNW,303,2.0,3.0,81,0.00,,,0.00,0,Wunderground v.1.15,2013-04-13 06:27:00,
2013-04-13 02:32:00,40.2,34.2,29.99,WNW,299,3.0,3.0,79,0.00,,,0.00,0,Wunderground v.1.15,2013-04-13 06:32:00,
2013-04-13 02:37:00,40.5,34.2,30.00,West,276,3.0,5.0,78,0.00,,,0.00,0,Wunderground v.1.15,2013-04-13 06:37:00,
2013-04-13 02:42:00,40.4,34.4,30.00,West,280,2.0,3.0,79,0.00,,,0.00,0,Wunderground v.1.15,2013-04-13 06:42:00,
2013-04-13 02:47:00,40.3,34.3,30.00,West,277,3.0,4.0,79,0.00,,,0.00,0,Wunderground v.1.15,2013-04-13 06:47:00,
2013-04-13 02:52:00,40.2,34.2,29.99,WNW,283,2.0,4.0,79,0.00,,,0.00,0,Wunderground v.1.15,2013-04-13 06:52:00,
2013-04-13 02:57:00,40.0,34.3,30.00,NW,308,3.0,4.0,80,0.00,,,0.00,0,Wunderground v.1.15,2013-04-13 06:57:00,
2013-04-13 03:02:00,40.0,34.0,30.00,NW,308,2.0,5.0,79,0.00,,,0.00,0,Wunderground v.1.15,2013-04-13 07:02:00,
2013-04-13 03:07:00,40.2,33.9,30.00,NW,312,4.0,7.0,78,0.00,,,0.00,0,Wunderground v.1.15,2013-04-13 07:07:00,
2013-04-13 03:12:00,40.2,33.9,30.00,NW,314,2.0,5.0,78,0.00,,,0.00,0,Wunderground v.1.15,2013-04-13 07:12:00,
2013-04-13 03:17:00,40.1,33.8,29.99,NW,310,2.0,5.0,78,0.00,,,0.00,0,Wunderground v.1.15,2013-04-13 07:17:00,
2013-04-13 03:22:00,40.0,33.7,30.00,NW,307,2.0,4.0,78,0.00,,,0.00,0,Wunderground v.1.15,2013-04-13 07:22:00,
2013-04-13 03:27:00,39.8,33.5,29.99,WNW,296,3.0,5.0,78,0.00,,,0.00,0,Wunderground v.1.15,2013-04-13 07:27:00,
2013-04-13 03:32:00,39.8,33.5,29.99,WNW,292,4.0,5.0,78,0.00,,,0.00,0,Wunderground v.1.15,2013-04-13 07:32:00,
2013-04-13 03:37:00,39.7,33.7,29.99,WNW,302,4.0,5.0,79,0.00,,,0.00,0,Wunderground v.1.15,2013-04-13 07:37:00,
2013-04-13 03:42:00,39.6,33.3,29.99,NW,317,2.0,4.0,78,0.00,,,0.00,0,Wunderground v.1.15,2013-04-13 07:42:00,
2013-04-13 03:47:00,39.5,33.2,29.99,WNW,295,5.0,5.0,78,0.00,,,0.00,0,Wunderground v.1.15,2013-04-13 07:47:00,
2013-04-13 03:52:00,39.4,33.1,29.99,WNW,290,3.0,4.0,78,0.00,,,0.00,0,Wunderground v.1.15,2013-04-13 07:52:00,
2013-04-13 03:57:00,39.3,33.0,29.99,WNW,286,3.0,5.0,78,0.00,,,0.00,0,Wunderground v.1.15,2013-04-13 07:57:00,
2013-04-13 04:02:00,39.1,32.8,29.99,WNW,292,3.0,4.0,78,0.00,,,0.00,0,Wunderground v.1.15,2013-04-13 08:02:00,
2013-04-13 04:07:00,39.0,32.7,29.99,WNW,299,3.0,4.0,78,0.00,,,0.00,0,Wunderground v.1.15,2013-04-13 08:07:00,
2013-04-13 04:12:00,38.8,32.8,29.99,WNW,288,3.0,4.0,79,0.00,,,0.00,0,Wunderground v.1.15,2013-04-13 08:12:00,
2013-04-13 04:17:00,38.7,32.7,29.99,West,277,2.0,5.0,79,0.00,,,0.00,0,Wunderground v.1.15,2013-04-13 08:17:00,
2013-04-13 04:22:00,38.6,32.6,29.99,WNW,287,2.0,4.0,79,0.00,,,0.00,0,Wunderground v.1.15,2013-04-13 08:22:00,
2013-04-13 04:27:00,38.6,32.6,29.99,WNW,298,3.0,5.0,79,0.00,,,0.00,0,Wunderground v.1.15,2013-04-13 08:27:00,
2013-04-13 04:32:00,38.5,32.6,29.99,NW,311,2.0,4.0,79,0.00,,,0.00,0,Wunderground v.1.15,2013-04-13 08:32:00,
2013-04-13 04:37:00,38.4,32.5,29.99,NW,310,2.0,4.0,79,0.00,,,0.00,0,Wunderground v.1.15,2013-04-13 08:37:00,
2013-04-13 04:42:00,38.3,32.4,29.99,WNW,300,3.0,4.0,79,0.00,,,0.00,0,Wunderground v.1.15,2013-04-13 08:42:00,
2013-04-13 04:47:00,38.2,32.6,30.00,WNW,286,2.0,4.0,80,0.00,,,0.00,0,Wunderground v.1.15,2013-04-13 08:47:00,
2013-04-13 04:52:00,38.1,32.5,30.00,West,281,3.0,4.0,80,0.00,,,0.00,0,Wunderground v.1.15,2013-04-13 08:52:00,
2013-04-13 04:57:00,38.0,32.4,30.00,WNW,284,3.0,5.0,80,0.00,,,0.00,0,Wunderground v.1.15,2013-04-13 08:57:00,
2013-04-13 05:02:00,37.9,32.3,30.00,West,281,3.0,4.0,80,0.00,,,0.00,0,Wunderground v.1.15,2013-04-13 09:02:00,
2013-04-13 05:07:00,37.8,32.5,30.00,WNW,285,3.0,4.0,81,0.00,,,0.00,0,Wunderground v.1.15,2013-04-13 09:07:00,
2013-04-13 05:12:00,37.7,32.4,30.00,WNW,287,2.0,5.0,81,0.00,,,0.00,0,Wunderground v.1.15,2013-04-13 09:12:00,
2013-04-13 05:17:00,37.7,32.4,30.00,WNW,287,2.0,5.0,81,0.00,,,0.00,0,Wunderground v.1.15,2013-04-13 09:17:00,
2013-04-13 05:22:00,37.6,32.3,30.00,WNW,282,3.0,4.0,81,0.00,,,0.00,0,Wunderground v.1.15,2013-04-13 09:22:00,
2013-04-13 05:28:00,37.5,32.5,30.01,West,281,3.0,4.0,82,0.00,,,0.00,0,Wunderground v.1.15,2013-04-13 09:28:00,
2013-04-13 05:33:00,37.5,32.5,30.01,WNW,282,2.0,4.0,82,0.00,,,0.00,0,Wunderground v.1.15,2013-04-13 09:33:00,
2013-04-13 05:38:00,37.4,32.4,30.01,West,281,4.0,5.0,82,0.00,,,0.00,0,Wunderground v.1.15,2013-04-13 09:38:00,
2013-04-13 05:42:00,37.3,32.3,30.01,WNW,287,3.0,4.0,82,0.00,,,0.00,0,Wunderground v.1.15,2013-04-13 09:42:00,
2013-04-13 05:48:00,37.1,32.1,30.01,West,281,3.0,4.0,82,0.00,,,0.00,0,Wunderground v.1.15,2013-04-13 09:48:00,
2013-04-13 05:52:00,37.0,32.3,30.01,WNW,286,2.0,5.0,83,0.00,,,0.00,0,Wunderground v.1.15,2013-04-13 09:52:00,
2013-04-13 05:58:00,37.0,32.3,30.01,WNW,290,2.0,5.0,83,0.00,,,0.00,0,Wunderground v.1.15,2013-04-13 09:58:00,
2013-04-13 06:02:00,36.9,32.2,30.01,WNW,283,3.0,4.0,83,0.00,,,0.00,0,Wunderground v.1.15,2013-04-13 10:02:00,
2013-04-13 06:08:00,36.9,32.2,30.01,West,278,3.0,4.0,83,0.00,,,0.00,0,Wunderground v.1.15,2013-04-13 10:08:00,
2013-04-13 06:13:00,36.8,32.1,30.01,West,277,2.0,4.0,83,0.00,,,0.00,0,Wunderground v.1.15,2013-04-13 10:13:00,
2013-04-13 06:18:00,36.7,32.0,30.01,West,271,3.0,4.0,83,0.00,,,0.00,0,Wunderground v.1.15,2013-04-13 10:18:00,
2013-04-13 06:23:00,36.6,32.2,30.01,West,265,3.0,5.0,84,0.00,,,0.00,0,Wunderground v.1.15,2013-04-13 10:23:00,
2013-04-13 06:28:00,36.4,32.0,30.01,West,261,5.0,5.0,84,0.00,,,0.00,0,Wunderground v.1.15,2013-04-13 10:28:00,
2013-04-13 06:33:00,36.3,31.9,30.01,WSW,254,2.0,3.0,84,0.00,,,0.00,0,Wunderground v.1.15,2013-04-13 10:33:00,
2013-04-13 06:38:00,36.1,31.7,30.01,WSW,254,2.0,3.0,84,0.00,,,0.00,0,Wunderground v.1.15,2013-04-13 10:38:00,
2013-04-13 06:43:00,36.0,31.6,30.01,WSW,254,1.0,3.0,84,0.00,,,0.00,0,Wunderground v.1.15,2013-04-13 10:43:00,
2013-04-13 06:48:00,35.9,31.8,30.02,WSW,254,2.0,4.0,85,0.00,,,0.00,0,Wunderground v.1.15,2013-04-13 10:48:00,
2013-04-13 06:53:00,35.8,31.7,30.02,WSW,254,3.0,4.0,85,0.00,,,0.00,0,Wunderground v.1.15,2013-04-13 10:53:00,
2013-04-13 06:58:00,35.8,31.7,30.02,WSW,254,2.0,4.0,85,0.00,,,0.00,0,Wunderground v.1.15,2013-04-13 10:58:00,
2013-04-13 07:03:00,35.7,31.6,30.02,WSW,254,3.0,4.0,85,0.00,,,0.00,0,Wunderground v.1.15,2013-04-13 11:03:00,
2013-04-13 07:08:00,35.6,31.5,30.03,WSW,248,2.0,4.0,85,0.00,,,0.00,5,Wunderground v.1.15,2013-04-13 11:08:00,
2013-04-13 07:13:00,35.5,31.4,30.03,WSW,243,2.0,3.0,85,0.00,,,0.00,9,Wunderground v.1.15,2013-04-13 11:13:00,
2013-04-13 07:18:00,35.5,31.7,30.04,WSW,256,3.0,4.0,86,0.00,,,0.00,14,Wunderground v.1.15,2013-04-13 11:18:00,
2013-04-13 07:23:00,35.6,31.5,30.03,West,259,3.0,4.0,85,0.00,,,0.00,19,Wunderground v.1.15,2013-04-13 11:23:00,
2013-04-13 07:28:00,35.8,31.7,30.04,West,261,4.0,5.0,85,0.00,,,0.00,23,Wunderground v.1.15,2013-04-13 11:28:00,
2013-04-13 07:33:00,36.0,31.6,30.04,WSW,252,5.0,6.0,84,0.00,,,0.00,30,Wunderground v.1.15,2013-04-13 11:33:00,
2013-04-13 07:38:00,36.1,31.7,30.04,WSW,250,4.0,6.0,84,0.00,,,0.00,26,Wunderground v.1.15,2013-04-13 11:38:00,
2013-04-13 07:43:00,36.3,31.9,30.04,WSW,242,5.0,6.0,84,0.00,,,0.00,58,Wunderground v.1.15,2013-04-13 11:43:00,
2013-04-13 07:48:00,36.7,32.3,30.04,SW,234,3.0,6.0,84,0.00,,,0.00,74,Wunderground v.1.15,2013-04-13 11:48:00,
2013-04-13 07:53:00,36.8,32.1,30.04,WSW,238,4.0,6.0,83,0.00,,,0.00,88,Wunderground v.1.15,2013-04-13 11:53:00,
2013-04-13 07:58:00,37.0,32.3,30.04,WSW,247,3.0,6.0,83,0.00,,,0.00,107,Wunderground v.1.15,2013-04-13 11:58:00,
2013-04-13 08:03:00,37.3,32.9,30.05,WSW,240,4.0,6.0,84,0.00,,,0.00,128,Wunderground v.1.15,2013-04-13 12:03:00,
2013-04-13 08:08:00,37.7,33.0,30.05,WSW,248,6.0,7.0,83,0.00,,,0.00,148,Wunderground v.1.15,2013-04-13 12:08:00,
2013-04-13 08:13:00,37.9,32.9,30.05,West,267,3.0,7.0,82,0.00,,,0.00,169,Wunderground v.1.15,2013-04-13 12:13:00,
2013-04-13 08:18:00,38.2,33.2,30.05,West,259,4.0,8.0,82,0.00,,,0.00,190,Wunderground v.1.15,2013-04-13 12:18:00,
2013-04-13 08:23:00,38.5,33.2,30.05,WSW,254,8.0,8.0,81,0.00,,,0.00,209,Wunderground v.1.15,2013-04-13 12:23:00,
2013-04-13 08:28:00,38.8,33.5,30.05,West,269,6.0,8.0,81,0.00,,,0.00,229,Wunderground v.1.15,2013-04-13 12:28:00,
2013-04-13 08:33:00,39.1,33.8,30.05,WSW,257,6.0,9.0,81,0.00,,,0.00,244,Wunderground v.1.15,2013-04-13 12:33:00,
2013-04-13 08:38:00,39.3,33.6,30.05,West,279,6.0,9.0,80,0.00,,,0.00,264,Wunderground v.1.15,2013-04-13 12:38:00,
2013-04-13 08:43:00,39.7,34.3,30.05,West,271,3.0,8.0,81,0.00,,,0.00,283,Wunderground v.1.15,2013-04-13 12:43:00,
2013-04-13 08:48:00,39.9,34.2,30.05,West,272,7.0,9.0,80,0.00,,,0.00,302,Wunderground v.1.15,2013-04-13 12:48:00,
2013-04-13 08:53:00,40.1,34.1,30.05,West,279,6.0,11.0,79,0.00,,,0.00,320,Wunderground v.1.15,2013-04-13 12:53:00,
2013-04-13 08:58:00,40.6,34.9,30.05,WNW,282,3.0,11.0,80,0.00,,,0.00,341,Wunderground v.1.15,2013-04-13 12:58:00,
2013-04-13 09:03:00,41.3,35.0,30.06,West,275,12.0,13.0,78,0.00,,,0.00,359,Wunderground v.1.15,2013-04-13 13:03:00,
2013-04-13 09:08:00,41.7,35.3,30.05,West,273,5.0,13.0,78,0.00,,,0.00,376,Wunderground v.1.15,2013-04-13 13:08:00,
2013-04-13 09:13:00,42.1,34.4,30.06,West,278,8.0,12.0,74,0.00,,,0.00,396,Wunderground v.1.15,2013-04-13 13:13:00,
2013-04-13 09:18:00,42.5,34.5,30.05,WNW,290,5.0,8.0,73,0.00,,,0.00,413,Wunderground v.1.15,2013-04-13 13:18:00,
2013-04-13 09:23:00,42.9,34.8,30.05,NW,308,8.0,13.0,73,0.00,,,0.00,432,Wunderground v.1.15,2013-04-13 13:23:00,
2013-04-13 09:28:00,43.2,34.4,30.05,NW,304,6.0,13.0,71,0.00,,,0.00,450,Wunderground v.1.15,2013-04-13 13:28:00,
2013-04-13 09:33:00,43.5,34.4,30.05,NW,307,7.0,9.0,70,0.00,,,0.00,464,Wunderground v.1.15,2013-04-13 13:33:00,
2013-04-13 09:38:00,44.0,34.5,30.06,West,279,7.0,10.0,69,0.00,,,0.00,487,Wunderground v.1.15,2013-04-13 13:38:00,
2013-04-13 09:43:00,44.3,34.0,30.06,WNW,290,10.0,13.0,67,0.00,,,0.00,501,Wunderground v.1.15,2013-04-13 13:43:00,
2013-04-13 09:48:00,44.8,34.1,30.06,WNW,293,10.0,10.0,66,0.00,,,0.00,519,Wunderground v.1.15,2013-04-13 13:48:00,
2013-04-13 09:53:00,45.0,34.3,30.05,West,273,3.0,12.0,66,0.00,,,0.00,536,Wunderground v.1.15,2013-04-13 13:53:00,
2013-04-13 09:58:00,45.7,34.2,30.06,WNW,293,8.0,8.0,64,0.00,,,0.00,554,Wunderground v.1.15,2013-04-13 13:58:00,
2013-04-13 10:03:00,45.7,33.8,30.06,West,270,7.0,12.0,63,0.00,,,0.00,568,Wunderground v.1.15,2013-04-13 14:03:00,
2013-04-13 10:08:00,46.1,34.2,30.05,West,259,8.0,8.0,63,0.00,,,0.00,584,Wunderground v.1.15,2013-04-13 14:08:00,
2013-04-13 10:13:00,46.4,33.7,30.06,West,273,12.0,16.0,61,0.00,,,0.00,603,Wunderground v.1.15,2013-04-13 14:13:00,
2013-04-13 10:18:00,46.6,33.0,30.06,West,269,12.0,12.0,59,0.00,,,0.00,615,Wunderground v.1.15,2013-04-13 14:18:00,
2013-04-13 10:23:00,47.1,34.3,30.06,WNW,287,8.0,13.0,61,0.00,,,0.00,629,Wunderground v.1.15,2013-04-13 14:23:00,
2013-04-13 10:28:00,47.3,34.5,30.06,NW,314,9.0,9.0,61,0.00,,,0.00,647,Wunderground v.1.15,2013-04-13 14:28:00,
2013-04-13 10:33:00,47.8,34.2,30.06,West,277,10.0,13.0,59,0.00,,,0.00,659,Wunderground v.1.15,2013-04-13 14:33:00,
2013-04-13 10:38:00,47.8,34.2,30.06,West,275,9.0,9.0,59,0.00,,,0.00,675,Wunderground v.1.15,2013-04-13 14:38:00,
2013-04-13 10:43:00,48.3,34.6,30.06,NW,311,7.0,16.0,59,0.00,,,0.00,689,Wunderground v.1.15,2013-04-13 14:43:00,
2013-04-13 10:48:00,48.3,33.8,30.06,WSW,257,8.0,8.0,57,0.00,,,0.00,703,Wunderground v.1.15,2013-04-13 14:48:00,
2013-04-13 10:54:00,49.0,34.4,30.07,WNW,287,6.0,13.0,57,0.00,,,0.00,715,Wunderground v.1.15,2013-04-13 14:54:00,
2013-04-13 10:59:00,49.2,34.6,30.07,NNW,342,8.0,8.0,57,0.00,,,0.00,729,Wunderground v.1.15,2013-04-13 14:59:00,
2013-04-13 11:04:00,49.0,34.4,30.07,WNW,290,8.0,12.0,57,0.00,,,0.00,742,Wunderground v.1.15,2013-04-13 15:04:00,
2013-04-13 11:09:00,49.2,33.7,30.07,NW,312,6.0,8.0,55,0.00,,,0.00,761,Wunderground v.1.15,2013-04-13 15:09:00,
2013-04-13 11:14:00,49.1,34.1,30.07,NW,308,6.0,14.0,56,0.00,,,0.00,770,Wunderground v.1.15,2013-04-13 15:14:00,
2013-04-13 11:19:00,49.7,33.2,30.07,West,281,7.0,9.0,53,0.00,,,0.00,786,Wunderground v.1.15,2013-04-13 15:19:00,
2013-04-13 11:24:00,49.6,33.6,30.07,NW,314,4.0,15.0,54,0.00,,,0.00,800,Wunderground v.1.15,2013-04-13 15:24:00,
2013-04-13 11:29:00,50.4,33.9,30.07,West,272,9.0,11.0,53,0.00,,,0.00,812,Wunderground v.1.15,2013-04-13 15:29:00,
2013-04-13 11:34:00,50.6,33.1,30.06,WNW,296,14.0,14.0,51,0.00,,,0.00,819,Wunderground v.1.15,2013-04-13 15:34:00,
2013-04-13 11:39:00,50.8,34.3,30.07,NW,319,8.0,10.0,53,0.00,,,0.00,835,Wunderground v.1.15,2013-04-13 15:39:00,
2013-04-13 11:44:00,51.1,34.1,30.06,WNW,296,4.0,11.0,52,0.00,,,0.00,838,Wunderground v.1.15,2013-04-13 15:44:00,
2013-04-13 11:49:00,51.8,33.7,30.06,West,271,8.0,11.0,50,0.00,,,0.00,853,Wunderground v.1.15,2013-04-13 15:49:00,
2013-04-13 11:54:00,51.7,33.1,30.06,WNW,287,10.0,14.0,49,0.00,,,0.00,860,Wunderground v.1.15,2013-04-13 15:54:00,
2013-04-13 11:59:00,51.7,33.1,30.06,West,259,4.0,8.0,49,0.00,,,0.00,867,Wunderground v.1.15,2013-04-13 15:59:00,
2013-04-13 12:04:00,52.3,33.7,30.06,West,278,13.0,16.0,49,0.00,,,0.00,875,Wunderground v.1.15,2013-04-13 16:04:00,
2013-04-13 12:09:00,52.3,33.7,30.06,NW,321,4.0,8.0,49,0.00,,,0.00,881,Wunderground v.1.15,2013-04-13 16:09:00,
2013-04-13 12:14:00,53.0,33.8,30.06,NW,310,10.0,13.0,48,0.00,,,0.00,891,Wunderground v.1.15,2013-04-13 16:14:00,
2013-04-13 12:19:00,52.8,33.6,30.06,WNW,294,7.0,12.0,48,0.00,,,0.00,896,Wunderground v.1.15,2013-04-13 16:19:00,
2013-04-13 12:24:00,52.9,33.2,30.06,WNW,286,5.0,13.0,47,0.00,,,0.00,904,Wunderground v.1.15,2013-04-13 16:24:00,
2013-04-13 12:29:00,53.4,34.2,30.06,WNW,288,9.0,13.0,48,0.00,,,0.00,911,Wunderground v.1.15,2013-04-13 16:29:00,
2013-04-13 12:34:00,53.4,33.7,30.05,West,277,9.0,13.0,47,0.00,,,0.00,918,Wunderground v.1.15,2013-04-13 16:34:00,
2013-04-13 12:39:00,54.0,33.7,30.05,West,279,11.0,11.0,46,0.00,,,0.00,923,Wunderground v.1.15,2013-04-13 16:39:00,
2013-04-13 12:44:00,53.5,34.3,30.05,NW,321,7.0,11.0,48,0.00,,,0.00,930,Wunderground v.1.15,2013-04-13 16:44:00,
2013-04-13 12:49:00,53.8,34.0,30.05,West,279,6.0,11.0,47,0.00,,,0.00,932,Wunderground v.1.15,2013-04-13 16:49:00,
2013-04-13 12:54:00,54.3,35.0,30.05,WSW,247,6.0,11.0,48,0.00,,,0.00,935,Wunderground v.1.15,2013-04-13 16:54:00,
2013-04-13 12:59:00,55.3,34.3,30.05,West,271,8.0,11.0,45,0.00,,,0.00,942,Wunderground v.1.15,2013-04-13 16:59:00,
2013-04-13 13:04:00,55.8,35.9,30.05,WSW,246,7.0,11.0,47,0.00,,,0.00,942,Wunderground v.1.15,2013-04-13 17:04:00,
2013-04-13 13:09:00,56.1,36.1,30.05,WNW,290,10.0,12.0,47,0.00,,,0.00,947,Wunderground v.1.15,2013-04-13 17:09:00,
2013-04-13 13:14:00,56.3,34.6,30.05,WNW,285,11.0,12.0,44,0.00,,,0.00,949,Wunderground v.1.15,2013-04-13 17:14:00,
2013-04-13 13:19:00,56.1,34.5,30.05,WNW,293,10.0,14.0,44,0.00,,,0.00,951,Wunderground v.1.15,2013-04-13 17:19:00,
2013-04-13 13:24:00,55.9,35.4,30.04,NW,304,6.0,14.0,46,0.00,,,0.00,951,Wunderground v.1.15,2013-04-13 17:24:00,
2013-04-13 13:29:00,56.2,35.1,30.05,WNW,301,6.0,12.0,45,0.00,,,0.00,949,Wunderground v.1.15,2013-04-13 17:29:00,
2013-04-13 13:34:00,56.4,34.7,30.05,WSW,251,5.0,12.0,44,0.00,,,0.00,951,Wunderground v.1.15,2013-04-13 17:34:00,
2013-04-13 13:39:00,57.0,36.4,30.04,West,273,5.0,11.0,46,0.00,,,0.00,951,Wunderground v.1.15,2013-04-13 17:39:00,
2013-04-13 13:44:00,57.5,35.7,30.04,WNW,296,7.0,11.0,44,0.00,,,0.00,951,Wunderground v.1.15,2013-04-13 17:44:00,
2013-04-13 13:49:00,57.1,36.5,30.04,West,277,9.0,14.0,46,0.00,,,0.00,951,Wunderground v.1.15,2013-04-13 17:49:00,
2013-04-13 13:54:00,57.5,36.3,30.04,West,272,5.0,14.0,45,0.00,,,0.00,946,Wunderground v.1.15,2013-04-13 17:54:00,
2013-04-13 13:59:00,58.0,35.6,30.04,WNW,282,10.0,12.0,43,0.00,,,0.00,949,Wunderground v.1.15,2013-04-13 17:59:00,
2013-04-13 14:04:00,58.1,36.3,30.04,WSW,248,5.0,16.0,44,0.00,,,0.00,940,Wunderground v.1.15,2013-04-13 18:04:00,
2013-04-13 14:09:00,57.7,36.5,30.04,WNW,303,8.0,9.0,45,0.00,,,0.00,940,Wunderground v.1.15,2013-04-13 18:09:00,
2013-04-13 14:14:00,58.9,36.4,30.04,WSW,246,12.0,15.0,43,0.00,,,0.00,935,Wunderground v.1.15,2013-04-13 18:14:00,
2013-04-13 14:19:00,58.4,36.0,30.04,West,276,7.0,10.0,43,0.00,,,0.00,932,Wunderground v.1.15,2013-04-13 18:19:00,
2013-04-13 14:24:00,58.8,36.3,30.03,WSW,242,10.0,14.0,43,0.00,,,0.00,926,Wunderground v.1.15,2013-04-13 18:24:00,
2013-04-13 14:27:00,58.7,36.2,30.04,WNW,292,13.0,17.0,43,0.00,,,0.00,921,Wunderground v.1.15,2013-04-13 18:27:00,
2013-04-13 14:31:00,58.7,36.2,30.03,WNW,286,8.0,13.0,43,0.00,,,0.00,918,Wunderground v.1.15,2013-04-13 18:31:00,
2013-04-13 14:36:00,59.3,37.4,30.03,WNW,292,7.0,16.0,44,0.00,,,0.00,914,Wunderground v.1.15,2013-04-13 18:36:00,
2013-04-13 14:37:00,59.5,37.6,30.03,West,261,7.0,16.0,44,0.00,,,0.00,912,Wunderground v.1.15,2013-04-13 18:37:00,
2013-04-13 14:42:00,59.7,37.2,30.03,West,269,12.0,14.0,43,0.00,,,0.00,905,Wunderground v.1.15,2013-04-13 18:42:00,
2013-04-13 14:47:00,59.5,37.0,30.03,West,271,8.0,18.0,43,0.00,,,0.00,902,Wunderground v.1.15,2013-04-13 18:47:00,
2013-04-13 14:52:00,59.9,36.7,30.03,WNW,289,7.0,16.0,42,0.00,,,0.00,896,Wunderground v.1.15,2013-04-13 18:52:00,
2013-04-13 14:57:00,59.7,36.6,30.03,West,265,10.0,16.0,42,0.00,,,0.00,889,Wunderground v.1.15,2013-04-13 18:57:00,
2013-04-13 15:02:00,60.0,37.4,30.03,West,280,9.0,16.0,43,0.00,,,0.00,882,Wunderground v.1.15,2013-04-13 19:02:00,
2013-04-13 15:07:00,60.8,37.5,30.02,WSW,257,9.0,16.0,42,0.00,,,0.00,870,Wunderground v.1.15,2013-04-13 19:07:00,
2013-04-13 15:12:00,61.4,38.1,30.02,West,277,11.0,15.0,42,0.00,,,0.00,865,Wunderground v.1.15,2013-04-13 19:12:00,
2013-04-13 15:17:00,61.1,37.2,30.02,West,268,6.0,16.0,41,0.00,,,0.00,853,Wunderground v.1.15,2013-04-13 19:17:00,
2013-04-13 15:22:00,61.1,36.6,30.02,WSW,258,8.0,13.0,40,0.00,,,0.00,840,Wunderground v.1.15,2013-04-13 19:22:00,
2013-04-13 15:27:00,61.2,36.7,30.02,West,261,11.0,16.0,40,0.00,,,0.00,835,Wunderground v.1.15,2013-04-13 19:27:00,
2013-04-13 15:32:00,61.0,37.1,30.02,West,277,8.0,13.0,41,0.00,,,0.00,830,Wunderground v.1.15,2013-04-13 19:32:00,
2013-04-13 15:37:00,61.3,37.4,30.02,WNW,294,6.0,20.0,41,0.00,,,0.00,816,Wunderground v.1.15,2013-04-13 19:37:00,
2013-04-13 15:42:00,61.6,37.0,30.02,WNW,302,6.0,15.0,40,0.00,,,0.00,803,Wunderground v.1.15,2013-04-13 19:42:00,
2013-04-13 15:47:00,61.8,37.2,30.01,WSW,258,11.0,15.0,40,0.00,,,0.00,789,Wunderground v.1.15,2013-04-13 19:47:00,
2013-04-13 15:52:00,61.3,36.8,30.01,WNW,301,7.0,13.0,40,0.00,,,0.00,777,Wunderground v.1.15,2013-04-13 19:52:00,
2013-04-13 15:57:00,61.5,37.6,30.01,NW,313,10.0,13.0,41,0.00,,,0.00,773,Wunderground v.1.15,2013-04-13 19:57:00,
2013-04-13 16:02:00,61.9,36.7,30.01,West,262,14.0,17.0,39,0.00,,,0.00,761,Wunderground v.1.15,2013-04-13 20:02:00,
2013-04-13 16:07:00,61.9,36.7,30.01,WNW,301,13.0,17.0,39,0.00,,,0.00,751,Wunderground v.1.15,2013-04-13 20:07:00,
2013-04-13 16:12:00,61.6,35.7,30.01,WNW,296,7.0,16.0,38,0.00,,,0.00,740,Wunderground v.1.15,2013-04-13 20:12:00,
2013-04-13 16:17:00,61.8,37.2,30.00,West,267,10.0,16.0,40,0.00,,,0.00,722,Wunderground v.1.15,2013-04-13 20:17:00,
2013-04-13 16:22:00,61.9,36.7,30.00,West,272,15.0,20.0,39,0.00,,,0.00,708,Wunderground v.1.15,2013-04-13 20:22:00,
2013-04-13 16:27:00,62.0,37.4,30.00,NW,305,8.0,20.0,40,0.00,,,0.00,694,Wunderground v.1.15,2013-04-13 20:27:00,
2013-04-13 16:32:00,61.8,36.6,30.00,West,265,7.0,11.0,39,0.00,,,0.00,682,Wunderground v.1.15,2013-04-13 20:32:00,
2013-04-13 16:37:00,62.0,36.1,30.00,West,279,8.0,19.0,38,0.00,,,0.00,670,Wunderground v.1.15,2013-04-13 20:37:00,
2013-04-13 16:42:00,62.3,36.4,30.00,West,280,13.0,15.0,38,0.00,,,0.00,654,Wunderground v.1.15,2013-04-13 20:42:00,
2013-04-13 16:47:00,62.2,36.3,30.00,West,281,7.0,15.0,38,0.00,,,0.00,642,Wunderground v.1.15,2013-04-13 20:47:00,
2013-04-13 16:52:00,62.4,36.4,30.00,NW,306,5.0,16.0,38,0.00,,,0.00,624,Wunderground v.1.15,2013-04-13 20:52:00,
2013-04-13 16:57:00,62.7,37.4,30.00,West,260,4.0,16.0,39,0.00,,,0.00,606,Wunderground v.1.15,2013-04-13 20:57:00,
2013-04-13 17:02:00,63.0,36.3,30.00,WNW,292,7.0,15.0,37,0.00,,,0.00,594,Wunderground v.1.15,2013-04-13 21:02:00,
2013-04-13 17:07:00,62.5,35.9,30.00,West,268,4.0,15.0,37,0.00,,,0.00,580,Wunderground v.1.15,2013-04-13 21:07:00,
2013-04-13 17:12:00,62.7,34.6,30.00,West,273,9.0,14.0,35,0.00,,,0.00,564,Wunderground v.1.15,2013-04-13 21:12:00,
2013-04-13 17:17:00,62.7,34.6,30.00,WNW,298,11.0,14.0,35,0.00,,,0.00,548,Wunderground v.1.15,2013-04-13 21:17:00,
2013-04-13 17:22:00,62.7,35.3,30.00,NW,304,12.0,16.0,36,0.00,,,0.00,533,Wunderground v.1.15,2013-04-13 21:22:00,
2013-04-13 17:27:00,62.2,34.9,30.00,WNW,293,4.0,16.0,36,0.00,,,0.00,517,Wunderground v.1.15,2013-04-13 21:27:00,
2013-04-13 17:32:00,62.3,35.0,30.00,West,277,10.0,13.0,36,0.00,,,0.00,503,Wunderground v.1.15,2013-04-13 21:32:00,
2013-04-13 17:37:00,62.5,34.5,30.00,WNW,288,5.0,14.0,35,0.00,,,0.00,483,Wunderground v.1.15,2013-04-13 21:37:00,
2013-04-13 17:42:00,62.4,34.4,30.00,WNW,296,9.0,13.0,35,0.00,,,0.00,468,Wunderground v.1.15,2013-04-13 21:42:00,
2013-04-13 17:47:00,62.3,35.0,30.00,West,267,8.0,13.0,36,0.00,,,0.00,446,Wunderground v.1.15,2013-04-13 21:47:00,
2013-04-13 17:52:00,62.6,35.3,30.00,WNW,290,9.0,12.0,36,0.00,,,0.00,429,Wunderground v.1.15,2013-04-13 21:52:00,
2013-04-13 17:57:00,62.6,35.9,30.00,West,270,7.0,12.0,37,0.00,,,0.00,411,Wunderground v.1.15,2013-04-13 21:57:00,
2013-04-13 18:02:00,62.6,35.9,30.00,NW,309,9.0,13.0,37,0.00,,,0.00,397,Wunderground v.1.15,2013-04-13 22:02:00,
2013-04-13 18:07:00,62.5,35.2,30.00,NW,309,8.0,16.0,36,0.00,,,0.00,380,Wunderground v.1.15,2013-04-13 22:07:00,
2013-04-13 18:12:00,62.1,34.8,30.00,WSW,255,10.0,11.0,36,0.00,,,0.00,359,Wunderground v.1.15,2013-04-13 22:12:00,
2013-04-13 18:17:00,62.1,34.8,30.00,West,260,13.0,15.0,36,0.00,,,0.00,341,Wunderground v.1.15,2013-04-13 22:17:00,
2013-04-13 18:22:00,61.9,34.6,30.00,WSW,247,8.0,12.0,36,0.00,,,0.00,323,Wunderground v.1.15,2013-04-13 22:22:00,
2013-04-13 18:27:00,61.8,34.5,30.00,WNW,289,5.0,13.0,36,0.00,,,0.00,306,Wunderground v.1.15,2013-04-13 22:27:00,
2013-04-13 18:32:00,61.7,35.1,30.00,West,271,6.0,12.0,37,0.00,,,0.00,288,Wunderground v.1.15,2013-04-13 22:32:00,
2013-04-13 18:37:00,61.6,35.1,30.00,West,268,5.0,12.0,37,0.00,,,0.00,272,Wunderground v.1.15,2013-04-13 22:37:00,
2013-04-13 18:42:00,61.6,35.1,30.00,West,280,8.0,14.0,37,0.00,,,0.00,255,Wunderground v.1.15,2013-04-13 22:42:00,
2013-04-13 18:47:00,61.6,35.1,30.00,WNW,284,6.0,14.0,37,0.00,,,0.00,236,Wunderground v.1.15,2013-04-13 22:47:00,
2013-04-13 18:52:00,61.5,35.0,30.00,WNW,290,7.0,10.0,37,0.00,,,0.00,216,Wunderground v.1.15,2013-04-13 22:52:00,
2013-04-13 18:57:00,61.3,34.8,30.00,West,273,4.0,11.0,37,0.00,,,0.00,195,Wunderground v.1.15,2013-04-13 22:57:00,
2013-04-13 19:02:00,61.3,35.5,30.00,West,279,5.0,10.0,38,0.00,,,0.00,174,Wunderground v.1.15,2013-04-13 23:02:00,
2013-04-13 19:07:00,61.2,35.4,30.00,WNW,290,5.0,10.0,38,0.00,,,0.00,153,Wunderground v.1.15,2013-04-13 23:07:00,
2013-04-13 19:12:00,61.0,35.8,30.00,WNW,302,11.0,11.0,39,0.00,,,0.00,135,Wunderground v.1.15,2013-04-13 23:12:00,
2013-04-13 19:17:00,60.8,35.0,30.00,West,275,6.0,11.0,38,0.00,,,0.00,118,Wunderground v.1.15,2013-04-13 23:17:00,
2013-04-13 19:22:00,60.6,34.8,30.00,WNW,294,1.0,8.0,38,0.00,,,0.00,98,Wunderground v.1.15,2013-04-13 23:22:00,
2013-04-13 19:27:00,60.3,34.6,30.00,NW,315,2.0,8.0,38,0.00,,,0.00,79,Wunderground v.1.15,2013-04-13 23:27:00,
2013-04-13 19:32:00,60.1,35.0,30.00,WNW,293,2.0,8.0,39,0.00,,,0.00,63,Wunderground v.1.15,2013-04-13 23:32:00,
2013-04-13 19:37:00,59.9,34.9,30.00,NW,307,3.0,8.0,39,0.00,,,0.00,49,Wunderground v.1.15,2013-04-13 23:37:00,
2013-04-13 19:42:00,59.6,34.6,30.00,WNW,296,4.0,7.0,39,0.00,,,0.00,37,Wunderground v.1.15,2013-04-13 23:42:00,
2013-04-13 19:47:00,59.3,34.3,30.00,WNW,296,3.0,7.0,39,0.00,,,0.00,28,Wunderground v.1.15,2013-04-13 23:47:00,
2013-04-13 19:52:00,59.1,34.8,30.00,NW,312,4.0,6.0,40,0.00,,,0.00,21,Wunderground v.1.15,2013-04-13 23:52:00,
2013-04-13 19:57:00,58.7,35.0,30.00,NW,310,2.0,6.0,41,0.00,,,0.00,16,Wunderground v.1.15,2013-04-13 23:57:00,
2013-04-13 20:02:00,58.4,34.8,30.00,WNW,296,1.0,4.0,41,0.00,,,0.00,12,Wunderground v.1.15,2013-04-14 00:02:00,
2013-04-13 20:07:00,58.0,35.0,30.00,NW,313,0.0,4.0,42,0.00,,,0.00,9,Wunderground v.1.15,2013-04-14 00:07:00,
2013-04-13 20:12:00,57.6,34.7,30.00,NW,313,0.0,2.0,42,0.00,,,0.00,5,Wunderground v.1.15,2013-04-14 00:12:00,
2013-04-13 20:17:00,57.3,34.4,30.00,WNW,299,1.0,3.0,42,0.00,,,0.00,0,Wunderground v.1.15,2013-04-14 00:17:00,
2013-04-13 20:22:00,57.2,34.9,30.00,WNW,299,1.0,3.0,43,0.00,,,0.00,0,Wunderground v.1.15,2013-04-14 00:22:00,
2013-04-13 20:27:00,57.1,34.8,30.00,WNW,298,2.0,3.0,43,0.00,,,0.00,0,Wunderground v.1.15,2013-04-14 00:27:00,
2013-04-13 20:32:00,57.0,34.7,30.00,WNW,298,1.0,3.0,43,0.00,,,0.00,0,Wunderground v.1.15,2013-04-14 00:32:00,
2013-04-13 20:37:00,56.8,35.1,30.00,West,277,2.0,4.0,44,0.00,,,0.00,0,Wunderground v.1.15,2013-04-14 00:37:00,
2013-04-13 20:42:00,56.6,34.9,30.00,West,277,1.0,3.0,44,0.00,,,0.00,0,Wunderground v.1.15,2013-04-14 00:42:00,
2013-04-13 20:48:00,56.4,35.3,30.00,West,271,2.0,3.0,45,0.00,,,0.00,0,Wunderground v.1.15,2013-04-14 00:48:00,
2013-04-13 20:53:00,56.1,35.0,30.00,West,273,1.0,3.0,45,0.00,,,0.00,0,Wunderground v.1.15,2013-04-14 00:53:00,
2013-04-13 20:58:00,55.9,34.8,30.01,West,274,2.0,3.0,45,0.00,,,0.00,0,Wunderground v.1.15,2013-04-14 00:58:00,
2013-04-13 21:03:00,55.7,34.7,30.01,WNW,284,2.0,4.0,45,0.00,,,0.00,0,Wunderground v.1.15,2013-04-14 01:03:00,
2013-04-13 21:08:00,55.7,34.7,30.01,WNW,284,2.0,4.0,45,0.00,,,0.00,0,Wunderground v.1.15,2013-04-14 01:08:00,
2013-04-13 21:13:00,55.5,34.5,30.01,WNW,291,0.0,3.0,45,0.00,,,0.00,0,Wunderground v.1.15,2013-04-14 01:13:00,
2013-04-13 21:18:00,55.4,34.4,30.01,WNW,291,2.0,3.0,45,0.00,,,0.00,0,Wunderground v.1.15,2013-04-14 01:18:00,
2013-04-13 21:23:00,55.3,34.9,30.01,WNW,291,1.0,3.0,46,0.00,,,0.00,0,Wunderground v.1.15,2013-04-14 01:23:00,
2013-04-13 21:28:00,55.0,35.1,30.01,WNW,291,2.0,3.0,47,0.00,,,0.00,0,Wunderground v.1.15,2013-04-14 01:28:00,
2013-04-13 21:33:00,54.1,36.4,30.01,WNW,291,0.0,2.0,51,0.00,,,0.00,0,Wunderground v.1.15,2013-04-14 01:33:00,
2013-04-13 21:38:00,53.2,36.5,30.01,WNW,291,0.0,2.0,53,0.00,,,0.00,0,Wunderground v.1.15,2013-04-14 01:38:00,
2013-04-13 21:43:00,52.6,36.4,30.01,WNW,291,1.0,1.0,54,0.00,,,0.00,0,Wunderground v.1.15,2013-04-14 01:43:00,
2013-04-13 21:48:00,52.8,35.6,30.02,WNW,291,1.0,2.0,52,0.00,,,0.00,0,Wunderground v.1.15,2013-04-14 01:48:00,
2013-04-13 21:53:00,53.3,35.1,30.02,WNW,291,1.0,2.0,50,0.00,,,0.00,0,Wunderground v.1.15,2013-04-14 01:53:00,
2013-04-13 21:58:00,53.6,35.9,30.02,WNW,291,1.0,3.0,51,0.00,,,0.00,0,Wunderground v.1.15,2013-04-14 01:58:00,
2013-04-13 22:03:00,52.8,36.1,30.02,WNW,288,3.0,3.0,53,0.00,,,0.00,0,Wunderground v.1.15,2013-04-14 02:03:00,
2013-04-13 22:08:00,52.6,35.5,30.02,WNW,286,2.0,3.0,52,0.00,,,0.00,0,Wunderground v.1.15,2013-04-14 02:08:00,
2013-04-13 22:13:00,52.8,35.2,30.02,WNW,286,0.0,2.0,51,0.00,,,0.00,0,Wunderground v.1.15,2013-04-14 02:13:00,
2013-04-13 22:18:00,52.7,35.6,30.03,WNW,286,0.0,2.0,52,0.00,,,0.00,0,Wunderground v.1.15,2013-04-14 02:18:00,
2013-04-13 22:23:00,52.9,35.2,30.03,WNW,286,1.0,2.0,51,0.00,,,0.00,0,Wunderground v.1.15,2013-04-14 02:23:00,
2013-04-13 22:28:00,53.1,35.9,30.03,WNW,286,0.0,2.0,52,0.00,,,0.00,0,Wunderground v.1.15,2013-04-14 02:28:00,
2013-04-13 22:33:00,52.8,35.6,30.03,WNW,286,0.0,2.0,52,0.00,,,0.00,0,Wunderground v.1.15,2013-04-14 02:33:00,
2013-04-13 22:38:00,52.1,35.9,30.03,WNW,286,1.0,2.0,54,0.00,,,0.00,0,Wunderground v.1.15,2013-04-14 02:38:00,
2013-04-13 22:43:00,52.3,35.2,30.03,WNW,286,2.0,2.0,52,0.00,,,0.00,0,Wunderground v.1.15,2013-04-14 02:43:00,
2013-04-13 22:48:00,52.5,35.4,30.04,West,279,3.0,3.0,52,0.00,,,0.00,0,Wunderground v.1.15,2013-04-14 02:48:00,
2013-04-13 22:53:00,52.6,35.0,30.04,West,278,2.0,4.0,51,0.00,,,0.00,0,Wunderground v.1.15,2013-04-14 02:53:00,
2013-04-13 22:58:00,52.6,35.0,30.04,West,267,2.0,4.0,51,0.00,,,0.00,0,Wunderground v.1.15,2013-04-14 02:58:00,
2013-04-13 23:03:00,52.5,35.4,30.04,West,267,2.0,3.0,52,0.00,,,0.00,0,Wunderground v.1.15,2013-04-14 03:03:00,
2013-04-13 23:08:00,52.4,35.3,30.03,West,267,1.0,3.0,52,0.00,,,0.00,0,Wunderground v.1.15,2013-04-14 03:08:00,
2013-04-13 23:13:00,52.2,35.1,30.03,West,267,2.0,3.0,52,0.00,,,0.00,0,Wunderground v.1.15,2013-04-14 03:13:00,
2013-04-13 23:18:00,52.1,35.0,30.03,West,267,2.0,3.0,52,0.00,,,0.00,0,Wunderground v.1.15,2013-04-14 03:18:00,
2013-04-13 23:23:00,52.0,35.4,30.03,West,267,2.0,3.0,53,0.00,,,0.00,0,Wunderground v.1.15,2013-04-14 03:23:00,
2013-04-13 23:28:00,52.0,35.4,30.03,West,267,0.0,3.0,53,0.00,,,0.00,0,Wunderground v.1.15,2013-04-14 03:28:00,
2013-04-13 23:33:00,49.2,36.3,30.04,West,267,0.0,1.0,61,0.00,,,0.00,0,Wunderground v.1.15,2013-04-14 03:33:00,
2013-04-13 23:38:00,47.4,36.6,30.04,West,267,0.0,1.0,66,0.00,,,0.00,0,Wunderground v.1.15,2013-04-14 03:38:00,
2013-04-13 23:43:00,46.9,36.9,30.04,West,267,0.0,0.0,68,0.00,,,0.00,0,Wunderground v.1.15,2013-04-14 03:43:00,
2013-04-13 23:48:00,46.3,37.0,30.04,West,267,2.0,3.0,70,0.00,,,0.00,0,Wunderground v.1.15,2013-04-14 03:48:00,
2013-04-13 23:53:00,45.9,37.4,30.03,West,267,0.0,3.0,72,0.00,,,0.00,0,Wunderground v.1.15,2013-04-14 03:53:00,
2013-04-13 23:58:00,46.1,37.2,30.03,West,267,0.0,3.0,71,0.00,,,0.00,0,Wunderground v.1.15,2013-04-14 03:58:00,